Tracking 17780 objects as of 27-July-2016
HD Live streaming from Space Station
objects crossing your sky now

SL-16 DEB

Track SL-16 DEB now!
10-day predictions


NORAD ID: 22453
Int'l Code: 1992-093ES
Perigee: 826.5 km
Apogee: 1,079.7 km
Inclination: 70.8 °
Period: 104.0 minutes
Semi major axis: 7324 km
RCS: 0.0192 m2 (small)
Launch date: December 25, 1992
Source: Commonwealth of Independent States (former USSR) (CIS)
Launch site: TYURATAM MISSILE AND SPACE COMPLEX (TTMTR)

Note: This is SATELLITE DEBRIS
Your satellite tracking list
Your tracking list is empty





NASA's NSSDC Master Catalog

Two Line Element Set (TLE):
1 22453U 92093ES  16207.53322606 +.00000188 +00000-0 +18335-3 0  9992
2 22453 070.8036 245.8110 0172859 171.4714 338.9059 13.85081546186306
Source of the keplerian elements: AFSPC

N2YO: 876